Location: Les Jeannots
(43.2262°N, 5.5774°E)
Time: 18:59:12
(UTC+00:00)

ATLAS 2AS CENTAUR R/B - Pass Details

Date: 05 July 2020
Orbit: 930 x 1282 km, 63.7° (Epoch: 19 July)

Event Time Altitude Azimuth Distance (km) Brightness Sun altitude
Rises 22:32:48 0° 323° (NW) 4,168 7.0 -22.2°
Reaches altitude 10° 22:35:41 10° 325° (NW) 3,159 6.2 -22.3°
Maximum altitude 22:43:17 82° 54° (NE) 1,153 2.8 -22.7°
Enters shadow 22:46:18 38° 137° (SE) 1,621 3.2 -22.9°
